Tracking 26922 objects as of 31-Jan-2023
HD Live streaming from Space Station
objects crossing your sky now

CZ-6A DEB

Track CZ-6A DEB now!
10-day predictions


NORAD ID: 54326
Int'l Code: 2022-151BV
Perigee: 472.1 km
Apogee: 840.3 km
Inclination: 99.1 °
Period: 97.7 minutes
Semi major axis: 7027 km
RCS: Unknown
Launch date: November 11, 2022
Source: People's Republic of China (PRC)
Launch site: Taiyaun Space Center, China (TSC)

Note: This is SATELLITE DEBRIS
Your satellite tracking list
Your tracking list is empty




NASA's NSSDC Master Catalog

Two Line Element Set (TLE):
1 54326U 22151BV  23031.02814409  .00068512  00000-0  59746-2 0  9993
2 54326  99.0807  50.9115 0262037  52.7767 309.7039 14.73770954 11167
Source of the keplerian elements: AFSPC